Temperature
14 14 15 15 15 14 14 14 13 14 14 14 14 13 14 14 14 14 14 14 15 15 15 15 15 15 14 14 14 14 13 13 13 13 13 12 12 12 12 12 12 11 11 11
14 14 14 14 14 14 14 14 13 14 13 14 14 14 14 14 14 14 14 14 14 14 14 14 14 14 14 14 14 13 13 13 13 13 12 12 12 12 12 12 11 11 11 11
12 13 14 13 14 14 14 13 14 14 14 13 13 13 13 13 14 14 14 14 14 14 14 14 14 14 14 14 13 13 13 13 12 12 12 12 12 11 11 11 11 11 11 11
11 12 13 14 14 14 14 14 13 13 13 13 13 13 14 14 14 14 14 13 14 13 13 13 13 13 13 13 13 13 13 12 12 12 12 12 11 11 11 11 11 11 10 10
10 11 12 13 14 14 13 13 13 13 12 12 12 13 13 14 14 14 14 14 13 13 13 13 13 13 13 13 13 12 12 12 12 12 11 11 11 11 11 10 10 10 10 10
10 12 12 13 14 14 14 13 13 12 12 12 11 11 12 14 14 14 13 13 13 13 13 13 13 12 12 12 12 12 12 12 11 11 11 11 11 10 10 10 10 10 10 10
9 11 11 12 13 14 13 13 13 13 13 12 11 12 13 13 13 13 13 13 13 13 12 12 12 12 12 12 12 11 11 11 11 11 11 10 10 10 10 10 10 9 9 9
9 10 11 12 12 12 12 13 13 13 13 13 13 13 13 13 13 13 12 12 12 12 12 12 11 11 11 11 11 11 11 10 10 10 10 10 10 10 10 9 9 9 9 9
10 11 11 12 12 13 13 13 13 13 13 13 13 13 12 12 12 12 12 12 12 12 11 11 11 11 11 11 10 10 10 10 10 10 10 9 9 9 9 9 9 9 8 8
9 10 11 12 12 13 13 13 13 13 13 13 13 12 12 12 12 12 11 11 11 11 11 11 10 10 10 10 10 10 10 9 9 9 9 9 9 9 9 9 8 8 8 8
9 9 10 12 12 12 12 12 12 12 12 12 12 12 12 11 11 11 11 11 11 11 10 10 10 10 10 10 9 9 9 9 9 9 9 9 8 8 8 8 8 8 7 7
9 10 9 11 12 12 12 12 12 12 12 12 12 11 11 11 11 11 11 11 11 10 10 10 10 10 9 9 9 9 9 9 9 9 8 8 8 8 7 7 7 7 7 7
11 12 11 11 11 11 11 11 11 11 11 11 11 11 11 10 10 10 10 10 10 10 10 10 9 9 9 9 9 9 8 8 8 8 8 8 7 7 7 7 6 6 6 6
11 11 11 11 11 11 11 11 11 11 11 11 11 10 10 10 10 10 10 10 10 10 9 9 9 9 9 8 8 8 8 8 8 7 7 7 7 7 7 6 6 6 6 6
11 11 11 11 11 11 11 10 10 10 10 10 10 10 10 10 10 10 10 9 9 9 9 9 9 8 8 8 8 8 7 7 7 7 7 7 7 6 6 6 6 5 5 5
11 10 10 10 10 10 10 10 10 10 10 10 10 10 9 9 9 9 9 9 9 9 9 8 8 8 8 7 7 7 7 7 7 6 6 6 6 6 6 5 5 5 5 5
10 10 10 10 10 10 10 10 10 9 9 9 9 9 9 9 9 9 9 9 8 8 8 8 8 7 7 7 7 7 6 6 6 6 6 6 6 5 5 5 5 5 4 4
10 10 10 10 10 10 9 9 9 9 9 9 9 9 8 8 8 8 8 8 8 8 7 7 7 7 7 7 6 6 6 6 6 6 5 5 5 5 5 5 4 4 4 4
10 10 10 9 9 9 9 9 9 9 8 8 8 8 8 8 8 8 8 7 7 7 7 7 7 7 7 6 6 6 6 5 5 5 5 5 4 4 4 4 4 4 3 3
10 9 9 9 9 9 9 8 8 8 8 8 8 8 8 8 7 7 7 7 7 7 7 6 6 6 6 6 6 6 5 5 5 5 4 4 4 4 4 4 3 3 3 3
9 9 9 9 8 8 8 8 8 8 7 7 7 7 7 7 7 7 7 6 6 6 6 6 6 6 6 5 5 5 5 4 4 4 4 4 4 3 3 3 3 3 3 2
8 8 8 8 8 8 8 8 7 7 7 7 7 7 7 7 6 6 6 6 6 6 5 5 5 5 5 5 5 5 4 4 4 4 3 3 3 3 3 3 3 3 2 2
8 8 8 8 8 7 7 7 7 7 7 7 6 6 6 6 6 6 6 5 5 5 5 5 5 4 4 4 4 4 4 4 3 3 3 3 3 3 3 2 2 2 2 2
8 7 7 7 7 7 7 7 6 6 6 6 6 6 6 6 5 5 5 5 5 4 4 4 4 4 4 4 4 3 3 3 3 3 3 2 2 2 2 2 2 2 2 1
7 7 7 7 7 6 6 6 6 6 5 5 5 5 5 5 5 5 4 4 4 4 4 4 4 3 3 3 3 3 3 3 2 2 2 2 2 2 2 1 1 1 1 1
6 6 6 6 6 6 6 5 5 5 5 5 5 5 4 4 4 4 4 4 4 3 3 3 3 3 3 3 3 2 2 2 2 2 2 1 1 1 1 1 1 1 1 0
6 6 5 5 5 5 5 5 5 5 4 4 4 4 4 4 4 3 3 3 3 3 3 2 2 2 2 2 2 2 2 2 2 1 1 1 1 1 1 0 0 0 0 0
Wind_Speed
5 4 3 4 4 5 7 7 8 7 7 8 6 4 4 2 1 1 1 0 0 1 1 1 1 2 2 3 3 3 4 5 5 4 4 3 3 4 4 4 5 5 5 4
4 3 3 5 5 6 6 6 6 5 7 7 3 1 1 1 1 1 1 2 2 1 1 2 2 2 2 2 3 3 4 4 4 3 3 3 4 3 3 4 4 4 5 5
4 4 3 6 6 6 5 4 6 7 7 3 2 2 3 3 2 2 3 2 2 2 3 3 3 2 3 3 3 3 4 3 3 3 3 4 3 3 4 4 4 4 5 5
1 1 5 6 3 4 4 4 4 4 4 3 3 4 3 3 2 3 3 2 2 2 2 2 2 1 1 2 3 3 4 4 3 3 4 3 3 4 4 4 4 5 5 5
2 2 6 5 3 4 4 4 3 4 3 1 1 2 3 3 2 4 4 3 3 2 2 1 1 1 2 2 2 2 4 4 4 4 4 4 4 5 4 4 4 4 4 4
3 2 5 5 3 2 3 4 3 3 3 2 2 1 5 4 2 2 1 1 1 0 0 0 1 1 2 1 2 3 4 4 4 4 4 4 5 4 3 4 4 4 4 4
4 5 6 5 4 2 3 6 3 4 4 5 5 6 5 3 2 2 1 1 1 1 1 1 1 2 1 1 3 4 3 2 2 3 4 4 4 3 3 3 3 3 3 3
4 4 6 2 2 3 5 3 3 4 4 5 5 4 3 2 2 2 1 1 1 1 1 1 1 2 1 3 4 2 1 1 2 2 2 2 2 2 2 3 3 3 3 3
6 6 3 1 3 3 2 3 3 3 4 4 4 4 3 2 2 2 2 2 1 1 1 1 1 2 2 3 2 1 1 2 2 2 1 2 2 2 2 2 3 3 2 3
3 5 4 4 4 4 3 4 4 4 4 3 4 4 3 2 2 2 2 2 2 2 1 2 2 2 3 3 2 1 2 2 2 2 1 1 1 2 2 3 3 3 3 3
4 5 5 4 4 4 4 4 3 3 2 3 3 3 3 2 2 2 2 2 2 2 2 3 3 3 2 2 2 2 2 2 2 2 2 1 1 2 3 4 4 4 4 4
7 6 5 6 5 3 3 4 4 3 2 1 2 3 2 2 2 2 2 2 1 2 2 3 3 3 3 2 2 2 2 2 2 2 2 2 1 1 2 2 3 4 4 4
7 5 5 5 4 2 2 3 3 2 2 2 1 2 2 2 2 2 1 2 3 3 3 3 3 3 3 2 2 3 3 3 2 2 2 2 2 2 1 3 2 1 1 2
5 3 3 4 4 3 2 2 2 1 1 1 1 1 1 1 1 2 3 3 3 2 3 3 3 4 4 2 2 2 2 3 3 3 3 3 3 3 2 2 1 2 2 1
6 5 6 4 3 2 1 0 1 2 2 1 0 1 2 2 3 4 3 2 1 2 3 3 3 4 3 2 2 2 2 2 2 2 2 3 3 2 2 2 2 1 1 1
4 3 3 3 4 3 2 2 2 3 3 2 2 2 3 3 3 3 2 2 2 3 4 3 4 4 2 2 2 2 2 3 3 2 2 2 3 3 2 2 2 2 2 2
4 4 4 4 5 4 4 4 4 4 3 3 4 3 2 1 2 2 3 3 3 3 3 3 4 3 2 2 3 2 2 3 3 3 3 3 3 4 4 3 3 3 3 3
7 7 7 6 6 5 4 4 4 4 4 4 3 2 2 3 4 4 3 2 1 2 3 3 2 2 2 2 2 2 2 2 2 3 3 3 3 3 3 3 4 3 2 2
5 5 5 5 5 5 4 4 4 3 3 3 2 3 4 4 4 4 2 2 2 3 4 3 2 1 2 3 2 2 2 2 2 2 3 4 3 3 3 3 3 3 3 2
4 3 3 3 3 3 4 3 3 2 2 2 2 2 3 3 3 2 2 3 4 4 3 2 2 2 2 2 2 2 2 3 3 3 3 3 3 4 4 4 4 3 3 3
3 3 3 3 3 3 3 3 3 3 3 2 3 4 4 3 2 2 2 3 4 2 1 2 1 2 2 2 2 2 2 2 2 2 2 3 3 3 4 4 4 4 4 3
3 3 3 3 3 3 3 2 3 3 2 2 3 3 3 3 2 2 3 3 3 2 1 1 1 2 2 2 1 2 2 2 2 2 2 2 3 3 3 3 4 4 4 3
3 3 3 3 3 3 2 2 2 3 3 3 3 3 3 3 2 2 3 3 2 2 1 2 3 3 2 1 1 2 2 3 2 2 3 3 3 3 3 3 3 3 3 3
3 3 3 2 2 2 2 3 2 2 2 2 2 2 2 2 1 2 2 2 2 1 1 2 3 3 1 0 1 2 2 2 2 2 2 2 2 2 2 2 2 2 3 3
3 2 2 2 2 2 3 2 1 1 0 1 2 1 1 1 2 1 1 1 1 0 1 1 1 1 0 1 1 1 2 2 2 2 2 2 3 2 2 2 2 2 2 2
2 2 2 3 2 2 2 1 1 1 1 1 1 1 1 0 0 0 0 0 0 0 1 1 0 1 1 1 1 1 1 1 1 1 2 2 3 2 2 2 3 2 2 2
1 1 1 1 1 1 1 2 2 2 2 2 1 1 0 0 0 0 1 1 1 1 1 1 0 1 1 1 1 1 1 1 1 1 1 1 2 2 2 3 2 2 2 2
Wind_Direction
248 257 236 239 237 205 201 202 208 232 234 261 262 250 256 254 183 107 86 357 235 254 275 265 235 209 192 193 181 178 181 192 209 215 213 212 215 219 211 207 214 214 212 219
287 279 260 262 259 232 223 216 219 236 258 263 258 214 239 222 177 196 251 265 272 284 286 274 246 219 199 198 190 174 184 204 210 200 201 208 217 218 215 215 213 209 215 217
270 295 327 269 242 215 204 203 195 221 243 260 272 234 223 218 193 221 235 239 235 240 251 257 248 217 205 205 183 176 193 205 206 201 206 217 220 213 220 221 216 217 221 220
230 35 242 247 245 197 197 233 217 222 243 237 241 253 229 191 194 240 246 233 236 238 243 257 250 231 187 161 171 188 202 211 213 210 216 219 212 219 229 227 223 226 230 228
154 223 271 289 250 186 192 255 237 216 235 263 346 15 301 257 230 228 224 221 218 224 220 216 230 212 161 165 183 200 218 222 219 213 216 220 225 232 233 226 230 230 231 230
156 196 241 248 282 255 146 257 250 200 221 204 104 360 272 278 255 257 252 210 172 164 127 130 275 141 138 186 202 230 236 234 225 210 210 222 232 237 235 227 230 230 236 235
193 224 259 264 294 112 169 246 254 210 216 190 203 223 245 260 233 214 201 188 155 145 161 218 203 140 147 228 245 249 245 231 220 215 215 220 228 234 229 220 218 226 241 252
178 207 253 282 97 171 226 270 238 224 220 213 237 249 250 236 201 179 172 177 161 152 233 249 184 161 197 254 268 264 231 220 228 231 228 221 211 229 222 204 208 226 244 266
193 214 246 232 221 259 248 263 263 245 251 228 243 253 256 232 204 205 199 208 204 179 215 293 249 198 225 264 273 257 230 228 240 243 241 213 200 211 222 207 211 224 226 245
236 261 266 275 287 301 286 268 272 260 248 225 233 240 231 220 216 217 221 213 192 167 195 273 278 264 245 255 242 205 229 243 238 227 246 240 210 203 203 210 215 221 225 237
252 276 295 289 276 287 304 309 303 296 256 212 200 218 216 216 224 224 229 226 196 189 215 253 272 282 278 250 207 216 240 242 229 217 209 217 229 227 215 220 217 215 224 215
233 234 225 259 272 275 295 302 296 305 323 298 207 208 204 214 222 212 216 213 199 207 225 253 268 280 284 257 208 203 235 237 224 217 211 199 196 316 317 265 259 233 216 205
233 240 233 255 269 275 278 291 290 271 249 262 263 207 197 220 223 204 217 221 224 231 237 248 260 274 279 269 236 218 223 223 217 210 208 205 196 198 280 339 349 302 230 219
236 238 257 255 258 267 263 286 307 312 296 235 216 191 181 198 225 224 232 236 241 248 254 250 255 267 272 256 235 238 230 221 213 213 209 206 206 206 202 201 263 313 314 270
247 227 228 245 254 266 269 330 360 321 315 316 237 195 190 204 230 245 252 247 238 257 267 265 263 269 271 240 224 230 225 226 219 212 211 205 201 198 197 198 207 237 292 324
237 230 219 225 235 245 248 232 241 260 263 261 252 244 234 231 241 250 253 220 216 247 258 259 260 265 254 219 213 223 230 227 211 201 198 195 189 188 194 197 205 215 224 228
203 223 222 229 234 236 232 232 230 242 247 251 253 250 240 240 261 265 263 250 237 244 249 247 259 270 246 209 205 221 226 230 215 201 201 200 196 197 198 197 202 214 227 219
215 219 216 213 221 232 242 241 236 240 245 247 250 237 221 222 238 250 256 260 272 290 282 265 259 265 256 223 207 211 215 222 217 210 206 203 201 198 196 197 201 207 223 220
220 219 220 221 222 219 228 237 238 238 246 239 225 233 239 238 239 245 239 226 236 262 276 269 264 269 260 240 205 199 205 209 213 218 210 202 198 193 191 195 200 201 201 196
214 210 214 226 227 216 226 237 237 243 245 230 227 242 255 254 242 229 220 240 245 248 252 253 253 250 247 237 205 190 201 207 205 210 205 200 200 199 194 194 197 198 194 193
214 217 219 225 234 237 229 225 226 241 248 230 227 238 246 256 240 216 217 260 277 260 249 256 261 248 237 218 202 185 192 200 199 199 199 201 206 203 198 197 197 193 190 190
212 216 225 229 230 248 251 234 231 242 251 253 252 245 242 249 244 249 252 245 253 240 250 258 249 237 223 215 182 182 193 197 198 190 191 199 198 198 198 195 193 190 187 187
218 222 227 230 229 236 253 248 239 240 245 246 247 242 233 230 221 221 268 270 252 246 265 255 248 244 231 192 182 189 195 194 192 189 194 194 189 185 188 190 190 186 181 183
224 231 237 235 209 205 246 264 258 250 250 255 248 238 225 224 265 261 247 260 265 270 267 250 253 251 233 160 184 188 194 190 188 188 186 178 174 176 177 179 185 187 185 182
219 225 221 206 210 227 235 242 258 277 284 301 300 297 268 223 226 247 242 249 247 308 306 270 255 258 72 128 162 177 187 182 174 165 165 167 169 175 176 175 180 186 189 189
230 226 226 221 219 220 215 205 216 225 212 268 305 311 317 333 155 143 99 339 328 25 8 352 359 60 84 112 121 131 140 153 156 156 161 167 169 176 184 185 187 193 195 195
232 218 224 277 265 223 198 197 205 221 216 204 249 291 310 59 65 70 74 44 27 33 45 34 44 89 96 99 99 100 102 106 117 133 149 160 168 179 190 195 193 194 194 200
Height
1498 1495 1495 1495 1495 1496 1499 1500 1505 1501 1499 1492 1489 1488 1487 1487 1487 1487 1487 1487 1488 1488 1489 1489 1490 1491 1492 1493 1494 1495 1496 1498 1499 1500 1501 1502 1503 1503 1504 1505 1505 1506 1506 1506
1498 1494 1494 1494 1492 1492 1493 1494 1496 1495 1494 1487 1486 1486 1486 1486 1486 1486 1486 1487 1487 1487 1487 1487 1488 1488 1489 1490 1491 1492 1493 1494 1495 1496 1497 1498 1499 1499 1500 1501 1501 1501 1502 1502
1504 1497 1495 1497 1490 1489 1489 1488 1490 1492 1489 1485 1485 1485 1484 1484 1484 1485 1485 1486 1486 1486 1486 1486 1486 1487 1487 1488 1489 1490 1491 1491 1492 1493 1493 1494 1495 1495 1496 1496 1497 1497 1497 1498
1506 1502 1503 1491 1482 1482 1484 1484 1484 1484 1483 1483 1483 1483 1483 1482 1483 1483 1483 1484 1484 1484 1485 1485 1485 1485 1486 1486 1487 1487 1488 1488 1489 1490 1490 1490 1491 1491 1492 1492 1492 1493 1493 1493
1508 1506 1498 1487 1481 1481 1484 1484 1481 1481 1481 1481 1481 1481 1481 1480 1480 1481 1481 1482 1482 1483 1483 1483 1483 1483 1483 1484 1484 1484 1485 1485 1486 1486 1486 1487 1487 1487 1488 1488 1488 1488 1488 1489
1506 1503 1500 1486 1478 1476 1480 1484 1478 1478 1479 1480 1481 1484 1481 1478 1478 1478 1479 1480 1480 1480 1481 1481 1481 1481 1481 1481 1481 1481 1481 1482 1482 1483 1483 1483 1483 1483 1484 1484 1484 1484 1484 1485
1504 1501 1492 1481 1477 1477 1487 1484 1476 1476 1476 1477 1478 1478 1477 1476 1476 1476 1477 1477 1478 1478 1478 1479 1479 1479 1478 1478 1478 1478 1479 1479 1479 1479 1479 1479 1479 1480 1480 1480 1480 1480 1480 1480
1500 1499 1493 1478 1477 1480 1479 1474 1473 1473 1473 1473 1473 1473 1473 1474 1473 1474 1474 1475 1476 1476 1476 1476 1476 1476 1476 1476 1476 1476 1476 1475 1475 1475 1475 1476 1476 1476 1476 1476 1476 1476 1476 1476
1487 1486 1478 1476 1475 1475 1474 1473 1471 1470 1470 1470 1470 1470 1470 1470 1470 1471 1472 1472 1473 1473 1473 1473 1474 1474 1473 1473 1473 1473 1472 1472 1472 1472 1472 1472 1472 1472 1472 1472 1472 1472 1472 1472
1482 1477 1474 1473 1473 1472 1471 1470 1469 1468 1467 1467 1467 1466 1467 1467 1467 1468 1468 1469 1470 1470 1470 1470 1471 1471 1471 1471 1470 1470 1469 1469 1469 1469 1468 1468 1468 1468 1468 1468 1468 1468 1468 1468
1479 1474 1472 1470 1470 1470 1469 1467 1466 1465 1465 1464 1464 1464 1464 1464 1465 1465 1466 1466 1467 1467 1467 1468 1468 1468 1468 1467 1467 1466 1466 1466 1465 1465 1465 1465 1465 1465 1465 1465 1465 1464 1464 1464
1474 1470 1470 1468 1467 1467 1466 1465 1464 1463 1462 1462 1462 1462 1462 1462 1463 1463 1463 1464 1464 1464 1465 1465 1465 1465 1464 1464 1464 1463 1462 1462 1462 1462 1462 1462 1462 1462 1462 1462 1462 1462 1462 1462
1466 1466 1466 1465 1465 1465 1464 1463 1463 1462 1461 1460 1460 1460 1460 1460 1461 1461 1461 1461 1462 1462 1462 1462 1462 1461 1461 1461 1460 1460 1459 1459 1458 1458 1458 1458 1458 1458 1458 1459 1459 1459 1459 1458
1463 1463 1462 1462 1462 1462 1461 1461 1461 1460 1460 1459 1458 1458 1458 1458 1458 1459 1459 1459 1459 1459 1459 1459 1458 1458 1458 1457 1457 1456 1456 1455 1455 1455 1455 1455 1455 1455 1455 1455 1455 1455 1456 1456
1459 1460 1459 1459 1459 1459 1458 1458 1458 1458 1458 1457 1457 1456 1456 1456 1456 1456 1456 1456 1456 1456 1455 1455 1454 1454 1454 1454 1453 1453 1452 1452 1452 1452 1452 1452 1452 1452 1452 1452 1452 1452 1452 1453
1455 1456 1456 1456 1456 1456 1456 1456 1455 1455 1455 1454 1454 1454 1454 1453 1453 1453 1453 1453 1452 1452 1451 1451 1451 1450 1450 1450 1450 1449 1449 1449 1449 1448 1448 1448 1448 1448 1449 1449 1449 1449 1449 1450
1452 1452 1452 1453 1453 1453 1453 1453 1453 1452 1452 1452 1451 1451 1450 1450 1450 1450 1449 1449 1449 1448 1448 1448 1447 1447 1446 1446 1446 1445 1445 1445 1445 1444 1444 1444 1444 1444 1445 1445 1445 1446 1446 1447
1448 1448 1449 1449 1450 1450 1450 1450 1450 1449 1449 1449 1448 1447 1447 1447 1446 1446 1446 1446 1445 1445 1444 1444 1443 1443 1442 1442 1442 1442 1441 1441 1440 1440 1440 1440 1440 1440 1441 1441 1441 1442 1443 1443
1444 1445 1446 1446 1447 1447 1446 1446 1446 1446 1446 1446 1445 1444 1444 1444 1443 1443 1442 1442 1441 1440 1440 1440 1439 1439 1438 1438 1438 1437 1437 1436 1436 1436 1436 1436 1436 1436 1437 1437 1438 1438 1439 1439
1441 1442 1442 1443 1443 1444 1444 1443 1443 1443 1443 1443 1442 1441 1440 1440 1440 1439 1438 1438 1437 1437 1437 1436 1436 1435 1435 1434 1434 1433 1433 1432 1432 1431 1431 1431 1432 1432 1432 1433 1434 1434 1435 1436
1438 1439 1439 1440 1440 1441 1441 1440 1440 1440 1440 1439 1439 1438 1437 1437 1436 1436 1435 1434 1434 1434 1433 1433 1432 1432 1431 1430 1430 1429 1429 1428 1428 1428 1428 1428 1428 1428 1428 1429 1429 1430 1431 1432
1435 1436 1436 1437 1437 1437 1437 1437 1437 1437 1436 1436 1435 1434 1433 1433 1432 1432 1432 1431 1431 1431 1430 1429 1429 1428 1428 1427 1426 1426 1425 1425 1424 1424 1424 1424 1424 1424 1424 1425 1425 1427 1428 1429
1433 1433 1434 1434 1434 1434 1433 1434 1434 1433 1433 1432 1431 1431 1430 1429 1429 1429 1428 1428 1428 1427 1427 1426 1425 1425 1424 1423 1423 1422 1422 1421 1421 1421 1421 1421 1421 1421 1422 1422 1423 1423 1424 1426
1430 1430 1430 1430 1430 1430 1430 1430 1430 1430 1430 1429 1428 1428 1427 1426 1426 1426 1425 1425 1424 1424 1423 1422 1422 1421 1420 1419 1419 1419 1418 1418 1418 1418 1418 1418 1419 1419 1419 1420 1420 1421 1422 1423
1427 1427 1427 1427 1427 1426 1427 1427 1427 1426 1426 1426 1425 1425 1424 1424 1423 1423 1422 1422 1421 1420 1420 1419 1418 1417 1417 1416 1416 1416 1415 1415 1415 1415 1415 1416 1416 1417 1417 1417 1418 1419 1419 1420
1423 1423 1424 1424 1423 1424 1423 1423 1423 1423 1423 1423 1422 1422 1421 1421 1420 1420 1419 1419 1418 1418 1417 1416 1415 1414 1414 1413 1413 1413 1413 1413 1413 1413 1413 1413 1414 1414 1415 1415 1416 1417 1417 1418
1420 1420 1420 1420 1420 1420 1420 1420 1420 1420 1420 1420 1419 1419 1419 1418 1418 1417 1417 1416 1416 1415 1415 1414 1413 1413 1412 1411 1411 1411 1411 1411 1411 1411 1411 1412 1412 1413 1413 1413 1414 1414 1415 1415